Regional Weather Roundup
Issued by NWS

Home | Current Version | Previous Version | Graphics & Text | Print | Product List | Glossary On
Versions: 1 2 3 4 5 6 7 8 9 10 11 12 13 14 15 16 17 18 19 20 21 22 23 24 25 26 27 28 29 30 31 32 33 34 35 36 37 38 39 40 41 42 43 44 45 46 47 48 49 50
000
ASUS43 KDMX 050007
RWRIA

WEATHER ROUNDUP FOR IOWA
NATIONAL WEATHER SERVICE DES MOINES IA
700 PM CDT MON MAY 04 2015

NOTE: "FAIR" INDICATES FEW OR NO CLOUDS BELOW 12,000 FEET WITH NO
SIGNIFICANT WEATHER AND/OR OBSTRUCTIONS TO VISIBILITY.

* - THESE STATIONS ARE NOT NWS STATIONS...THUS NOT UNDER NWS
QUALITY CONTROL.  THEY ALSO DO NOT REPORT WEATHER SUCH
AS PRECIPITATION OR FOG.

IAZ001>003-012>014-020>022-031>034-043>046-050100-
   NORTHWEST IOWA

CITY           SKY/WX    TMP DP  RH WIND       PRES   REMARKS
CARROLL *      CLOUDY    57  55  94 NE12      30.13S FOG
CHEROKEE *     CLOUDY    62  44  51 SE6       30.12F
DENISON *      LGT RAIN  55  55 100 NE14      30.09F
LE MARS *      SUNNY     66  45  45 SE13      30.12S
ORANGE CITY *  SUNNY     66  36  32 E10       30.12S
SHELDON *      SUNNY     68  41  37 E14       30.11F
SIOUX CITY     CLOUDY    62  46  55 E14       30.10F
6HR MIN TEMP:  61; 6HR MAX TEMP:  70; 6HR PCP:  0.03;

SPENCER        CLOUDY    67  37  33 E12       30.13F
6HR MIN TEMP:  67; 6HR MAX TEMP:  71;

STORM LAKE *   SUNNY     57  48  72 E12       30.14S
$$

IAZ055>058-069>071-079>083-090>094-050100-
   SOUTHWEST IOWA

CITY           SKY/WX    TMP DP  RH WIND       PRES   REMARKS
ATLANTIC *     DRIZZLE   63  63 100 NE10      30.08S
AUDUBON *      RAIN      57  54  88 NE9G20    30.11F
CLARINDA *     RAIN      64  64 100 NE9       30.07R
COUNCIL BLFS * CLOUDY    63  63 100 NE14G20   30.07R
CRESTON *      LGT RAIN  63  63 100 NE10      30.07S
HARLAN  *      CLOUDY    61  61 100 NE15G22   30.11F
LAMONI         CLOUDY    71  63  75 N6        30.04S
6HR MIN TEMP:  70; 6HR MAX TEMP:  75; 6HR PCP:  0.01;

RED OAK *      LGT RAIN  64  63  94 NE9       30.06R
SHENANDOAH *   LGT RAIN  64  64 100 NE10      30.05S
$$

IAZ047>049-059>061-072>074-084-050100-
   CENTRAL IOWA

CITY           SKY/WX    TMP DP  RH WIND       PRES   REMARKS
AMES           LGT RAIN  62  58  86 NE10      30.10F
6HR MIN TEMP:  62; 6HR MAX TEMP:  68; 6HR PCP:  0.08;

ANKENY *       PTSUNNY   64  63  94 N9        30.08S
CHARITON *     PTSUNNY   68  63  83 N12       30.06S
DES MOINES     LGT RAIN  67  62  84 NE10      30.07F
6HR MIN TEMP:  67; 6HR MAX TEMP:  71; 6HR PCP:  0.02;

GRINNELL*      HVY RAIN  64  63  94 N9        30.08F
KNOXVILLE *    CLOUDY    68  61  77 NE10      30.05F
MARSHALLTOWN   LGT RAIN  63  60  90 NE13      30.09S FOG
6HR MIN TEMP:  63; 6HR MAX TEMP:  68; 6HR PCP:  0.13;

PELLA *        CLOUDY    68  65  89 N6        30.07F
PERRY *        LGT RAIN  59  55  88 NE12      30.10S
$$

IAZ004>006-015-016-023>025-035-036-050100-
   NORTH CENTRAL IOWA

CITY           SKY/WX    TMP DP  RH WIND       PRES   REMARKS
ALGONA *       MOSUNNY   68  39  34 NE9       30.14S
CLARION *      MOSUNNY   63  52  67 SE8       30.13S
ESTHERVILLE    PTSUNNY   65  34  31 E15       30.14S
6HR MIN TEMP:  65; 6HR MAX TEMP:  70;

FORT DODGE *   CLOUDY    57  50  77 SE6       30.14S
MASON CITY     CLOUDY    66  42  41 NE8       30.15S
6HR MIN TEMP:  66; 6HR MAX TEMP:  71;

FOREST CITY *  SUNNY     64  36  34 NE9       30.14S
IOWA FALLS *   LGT RAIN  61  52  72 NE6       30.13F
$$

IAZ007>011-017>019-026>030-037>042-050>054-066-050100-
   NORTHEAST IOWA

CITY           SKY/WX    TMP DP  RH WIND       PRES   REMARKS
CEDAR RAPIDS   LGT RAIN  68  63  84 NE5       30.08R
6HR MIN TEMP:  68; 6HR MAX TEMP:  72; 6HR PCP: TRACE;

CHARLES CITY * SUNNY     66  46  48 NE6       30.14S
CLINTON *      PTSUNNY   72  59  64 E8        30.11S
DECORAH *      MOSUNNY   68  43  40 NE5       30.12F
DUBUQUE        CLOUDY    70  57  63 NE7       30.10S
6HR MIN TEMP:  69; 6HR MAX TEMP:  74;

MONTICELLO *   MOSUNNY   70  63  78 NE5       30.08S
OELWEIN *      PTSUNNY   66  54  63 NE7       30.12R
WATERLOO       CLOUDY    63  55  75 N7        30.11R
6HR MIN TEMP:  63; 6HR MAX TEMP:  70; 6HR PCP:  0.03;

$$

IAZ064-065-067-068-078-050100-
   EAST CENTRAL IOWA

CITY           SKY/WX    TMP DP  RH WIND       PRES   REMARKS
DAVENPORT      PTSUNNY   71  59  65 E10       30.09R
6HR MIN TEMP:  69; 6HR MAX TEMP:  74;

IOWA CITY      CLOUDY    71  62  73 NE9       30.08R
6HR MIN TEMP:  70; 6HR MAX TEMP:  74; 6HR PCP: TRACE;

MT. PLEASANT * LGT RAIN  68  64  86 SE15      30.05R
MUSCATINE *    PTSUNNY   73  63  68 E13G18    30.05S
QUAD CITIES    CLOUDY    73  59  61 E12       30.07R
6HR MIN TEMP:  73; 6HR MAX TEMP:  77;

$$

IAZ062-063-075>077-085>089-095>099-050100-
   SOUTHEAST IOWA

CITY           SKY/WX    TMP DP  RH WIND       PRES   REMARKS
BURLINGTON     LGT RAIN  69  66  90 SE10      30.05S
6HR MIN TEMP:  68; 6HR MAX TEMP:  79; 6HR PCP:  0.15;

FAIRFIELD *    PTSUNNY   72  63  73 NE14      30.04R
FORT MADISON * CLOUDY    66  63  88 E9        30.05F
KEOKUK *       SUNNY     72  66  83 E7        30.04S
OSKALOOSA *    LGT RAIN  68  63  83 NE13      30.05F
CENTERVILLE *  PTSUNNY   73  66  78 N9        30.05S
OTTUMWA        CLOUDY    71  65  81 NE9       30.04S
6HR MIN TEMP:  70; 6HR MAX TEMP:  80; 6HR PCP:  0.34;

WASHINGTON *   MOSUNNY   72  72 100 NE10      30.06R
$$

ABBREVIATIONS USED IN REMARKS
   TC - TEMPERATURES IN CELSIUS
  WCI - WIND CHILL INDEX
   HX - HEAT INDEX
  VSB - VISIBILITY
$$




USA.gov is the U.S. government's official web portal to all federal, state and local government web resources and services.